Location: Berg
(47.2344°N, 9.5296°E)
Time: 22:48:11
(UTC+00:00)

Cosmos 2082 Rocket - Pass Details

Date: 24 January 2021
Orbit: 832 x 854 km, 71.0° (Epoch: 03 March)

Event Time Altitude Azimuth Distance (km) Brightness Sun altitude
Rises 18:34:54 0° 334° (NNW) 3,436 5.7 -24.0°
Reaches altitude 10° 18:37:25 10° 339° (NNW) 2,496 4.9 -24.5°
Enters shadow 18:42:34 55° 36° (NE) 1,017 2.3 -25.3°
